Volver al catálogo

STARLINK-5746

ActivoComunicacionesVLEO
NORAD 56926·PAYLOAD·🇺🇸 United States

Lanzado Jun 12, 2023 desde Cape Canaveral Space Force Station

Loading…

Próximos Pases (próximas 24 horas)

TLE

ActualizadoSource: CelesTrak SupGP

Época: Sep 15, 2026, 02:11 UTC

1 56926C 23083BC  26258.09145833  .00001983  00000+0  71827-4 0  2587
2 56926  43.0012  81.0296 0001186 267.1030 132.5565 15.27581184    11

Sigue STARLINK-5746 en tiempo real con AllMySat

Download on the App Store